Location: Grieser Field
(39.7333°N, 81.7975°W)
Time: 09:32:13
(UTC-04:00)

HST - Visible Passes

Search period start: 21 October 2014 00:00
Search period end: 31 October 2014 00:00
Orbit: 546 x 551 km, 28.5° (Epoch: 19 October)

Date Brightness Start Highest point End Pass type
(mag) Time Alt. Az. Time Alt. Az. Time Alt. Az.
25 Oct 3.5 20:50:25 10° SSW 20:50:41 11° SSW 20:50:41 11° SSW visible
26 Oct 3.2 20:42:43 10° SSW 20:43:51 14° SSW 20:43:51 14° SSW visible
27 Oct 3.0 20:35:08 10° SW 20:36:59 16° S 20:36:59 16° S visible
28 Oct 2.9 20:27:37 10° SW 20:30:06 17° S 20:30:06 17° S visible
29 Oct 2.8 20:20:09 10° SW 20:22:57 17° S 20:23:11 17° S visible
30 Oct 2.8 20:12:45 10° SW 20:15:30 17° S 20:16:17 16° S visible
